Change the Weather History Date:

Saturday, June 14, 2014

  Actual Average Record
Temperature  
Mean Temperature 65 °F 64 °F  
Max Temperature 83 °F 79 °F 110 °F (2000)
Min Temperature 46 °F 50 °F 40 °F (2003)
Degree Days  
Heating Degree Days 0    
Month to date heating degree days 25  
Since 1 June heating degree days 25  
Since 1 July heating degree days 2917  
Cooling Degree Days 0    
Month to date cooling degree days 15  
Year to date cooling degree days 26  
Since 1 June cooling degree days 15  
Growing Degree Days 14 (Base 50)    
Moisture  
Dew Point 51 °F    
Average Humidity 67    
Maximum Humidity 100    
Minimum Humidity 33    
Precipitation  
Precipitation 0.00 in - 0.18 in (1920)
Month to date precipitation 0.00  
Year to date precipitation 8.27  
Since 1 July precipitation 10.47  
Sea Level Pressure  
Sea Level Pressure 29.85 in    
Wind  
Wind Speed 8 mph (SSW)    
Max Wind Speed 21 mph    
Max Gust Speed 26 mph    
Visibility 10 miles    
Events      
T = Trace of Precipitation, MM = Missing Value Source: NWS Daily Summary

Daily Weather History Graph

Daily Weather History Graph

Search for Another Location

Airport or City:

Trip Planner

Search our weather history database for the weather conditions in past years. The results will help you decide how hot, cold, wet, or windy it might be!

Date:

Astronomy

Jun. 14, 2014 Rise Set
Actual Time 5:45 AM PDT 8:33 PM PDT
Civil Twilight 5:13 AM PDT 9:05 PM PDT
Nautical Twilight 4:34 AM PDT 9:44 PM PDT
Astronomical Twilight 3:49 AM PDT 10:29 PM PDT
Moon 10:03 PM PDT (6/14) 7:34 AM PDT (6/14)
Length of Visible Light 15h 51m
Length of Day
14h 48m
Waning Gibbous, 96% of the Moon is Illuminated
Jun 14
Waning Gibbous
Jun 19
Last Quarter
Jun 27
New
Jul 5
First Quarter
Jul 12
Full

Hourly Weather History & Observations

Time (PDT) Temp. Dew Point Humidity Pressure Visibility Wind Dir Wind Speed Gust Speed Precip Events Conditions
12:54 AM 55.9 °F 52.0 °F 87% 29.90 in 10.0 mi South 4.6 mph - N/A   Clear
1:54 AM 55.0 °F 51.1 °F 86% 29.90 in 10.0 mi Calm Calm - N/A   Clear
2:54 AM 51.1 °F 48.9 °F 92% 29.89 in 10.0 mi Calm Calm - N/A   Clear
3:54 AM 50.0 °F 48.0 °F 93% 29.90 in 10.0 mi ESE 3.5 mph - N/A   Clear
4:54 AM 52.0 °F 50.0 °F 93% 29.89 in 10.0 mi Calm Calm - N/A   Clear
5:54 AM 46.0 °F 45.0 °F 96% 29.89 in 8.0 mi Calm Calm - N/A   Clear
6:54 AM 52.0 °F 51.1 °F 97% 29.90 in 10.0 mi Calm Calm - N/A   Clear
7:54 AM 59.0 °F 52.0 °F 78% 29.90 in 10.0 mi SW 3.5 mph - N/A   Clear
8:54 AM 64.0 °F 50.0 °F 60% 29.90 in 10.0 mi Variable 3.5 mph - N/A   Clear
9:54 AM 69.1 °F 51.1 °F 53% 29.90 in 10.0 mi Calm Calm - N/A   Clear
10:54 AM 75.0 °F 50.0 °F 41% 29.88 in 10.0 mi SW 6.9 mph - N/A   Clear
11:54 AM 77.0 °F 57.0 °F 50% 29.87 in 10.0 mi South 9.2 mph - N/A   Clear
12:54 PM 82.0 °F 50.0 °F 33% 29.86 in 10.0 mi SSW 10.4 mph - N/A   Clear
1:54 PM 82.0 °F 51.1 °F 34% 29.84 in 10.0 mi SSW 16.1 mph - N/A   Clear
2:54 PM 81.0 °F 52.0 °F 36% 29.84 in 10.0 mi SSW 17.3 mph 25.3 mph N/A   Clear
3:54 PM 78.1 °F 52.0 °F 40% 29.83 in 10.0 mi SSW 18.4 mph - N/A   Clear
4:54 PM 78.1 °F 52.0 °F 40% 29.82 in 10.0 mi SSW 11.5 mph - N/A   Clear
5:54 PM 75.9 °F 52.0 °F 43% 29.80 in 10.0 mi SW 12.7 mph - N/A   Clear
6:54 PM 71.1 °F 54.0 °F 55% 29.79 in 10.0 mi SSW 13.8 mph - N/A   Clear
7:54 PM 64.9 °F 54.0 °F 68% 29.79 in 10.0 mi South 12.7 mph - N/A   Clear
8:54 PM 61.0 °F 54.0 °F 78% 29.78 in 10.0 mi South 10.4 mph - N/A   Clear
9:54 PM 57.9 °F 53.1 °F 84% 29.80 in 10.0 mi South 10.4 mph - N/A   Clear
10:54 PM 55.9 °F 48.9 °F 77% 29.80 in 10.0 mi SSW 8.1 mph - N/A   Clear
11:54 PM 55.9 °F 52.0 °F 87% 29.78 in 10.0 mi SSW 10.4 mph - N/A   Clear